Regional Weather Roundup
Issued by NWS Bismarck, ND

Home | Current Version | Previous Version | Text Only | Print | Product List | Glossary On
Versions: 1 2 3 4 5 6 7 8 9 10 11 12 13 14 15 16 17 18 19 20 21 22 23 24 25 26 27 28 29 30 31 32 33 34 35 36 37 38 39 40 41 42 43 44 45 46 47 48 49 50
000
ASUS43 KBIS 232202
RWRBIS

NWR BROADCAST TEXT
NATIONAL WEATHER SERVICE BISMARCK ND
500 PM CDT MON OCT 23 2017

NOTE: "FAIR" INDICATES FEW OR NO CLOUDS BELOW 12,000 FEET WITH NO
SIGNIFICANT WEATHER AND/OR OBSTRUCTIONS TO VISIBILITY.


CITY           SKY/WX    TMP DP  RH WIND       PRES   REMARKS
WILLISTON      LGT RAIN  56  25  30 NW32G43   30.28R
MINOT          MOSUNNY   50  33  52 NW24G35   30.16R
MINOT AFB      MOSUNNY   51  31  47 NW30G37   30.14R
BISMARCK       CLOUDY    55  27  34 NW26G36   30.15R
DICKINSON      MOSUNNY   55  24  30 NW37G49   30.23R
GARRISON         N/A     50  30  46 NW33G46   30.16R
HETTINGER ARPT MOSUNNY   55  23  28 NW36G49   30.26R
JAMESTOWN      PTSUNNY   52  34  50 NW30G40   30.03R
CARRINGTON     CLOUDY    46  39  76 NW25G31   30.09R
HAZEN          MOCLDY    54  27  35 N26G37    30.20R
LINTON           N/A     54  27  35 NW26G40   30.14R
RUGBY          FAIR      46  34  61 NW26      30.10R
STANLEY        FAIR      50  30  46 NW24G39   30.23R
TIOGA          FAIR      52  27  37 NW30G40   30.24R
WATFORD CITY   FAIR      54  25  32 NW23G37   30.25R
$$

CITY           SKY/WX    TMP DP  RH WIND       PRES   REMARKS
GRAND FORKS    MOSUNNY   49  33  54 N20       29.99R
GRAND FORKS AF CLOUDY    52  26  36 N24       29.99R
DEVILS LAKE    PTSUNNY   46  32  58 NW22G29   30.05R
FARGO          PTSUNNY   55  30  38 N24G36    29.96R
CANDO          FAIR      48  28  46 NW18G26   30.09R
CAVALIER       FAIR      46  32  57 N17G29    30.02R
GWINNER        MOCLDY    54  32  43 NW28      30.00S
LANGDON        FAIR      46  30  53 N22G31    30.04R
ROLLA          FAIR      46  30  53 NW26G37   30.08R
WALHALLA       FAIR     N/A N/A N/A N20G29    30.04R
$$

CITY           SKY/WX    TMP DP  RH WIND       PRES   REMARKS
ABERDEEN       CLOUDY    55  33  43 NW22G35   30.06R
BUFFALO          N/A     57  20  23 NW40G49   30.23R
RAPID CITY     PTSUNNY   55  16  21 NW29G43   30.33R
GLASGOW        SUNNY     57  24  28 NW25G35   30.39R
SIDNEY         SUNNY     57  26  30 NW30G38   30.30R
WOLF POINT     SUNNY     60  23  24 NW28G43   30.35R
GLENDIVE       MOSUNNY   56  26  31 NW25G33   30.34R
MILES CITY     MOSUNNY   59  25  27 NW29G36   30.40R
BAKER          MOSUNNY   55  24  30 NW30G41   30.34R
$$

CITY           SKY/WX    TMP DP  RH WIND       PRES   REMARKS
BILLINGS       MOSUNNY   57  20  23 NW18G25   30.50R
GREAT FALLS    SUNNY     56  15  20 W14G22    30.53R
$$





USA.gov is the U.S. government's official web portal to all federal, state and local government web resources and services.